PulseSat

PulseSat

GSAT0217 (PRN E27)

Last updated on Jan. 16, 2019, 2:58 a.m. UTC

1 43057U 17079C   19014.92190773 -.00000026  00000-0  00000+0 0  9994
2 43057  56.6819 296.0279 0003608 290.4725  69.5258  1.70473452  6786
UTC
Height (km)
Latitude
Longitude
Inclination
Orbital Period

Next 30 passes for location: Hong Kong

Rise time Rise Azimuth (degrees) Set time Set Azimuth (degrees) Duration Max altitude (degrees)

No matching passes for this satellites

PulseSat

PulseSat is the new satellites software and hardware trackering solution by Pulsely.
Satellite Two Line Element Set source: US Air Force Space Command

Download PulseSat for iOS
© 2017 Pulsely Limited